Date,TemperatureHighF,TemperatureAvgF,TemperatureLowF,DewpointHighF,DewpointAvgF,DewpointLowF,HumidityHigh,HumidityAvg,HumidityLow,PressureMaxIn,PressureMinIn,WindSpeedMaxMPH,WindSpeedAvgMPH,GustSpeedMaxMPH,PrecipitationSumIn
2012-8-13,89,72,62,65,61,55,93,72,34,30.04,29.93,11,2,11,0.00
2012-8-14,84,71,62,70,64,61,98,81,54,29.93,29.86,10,2,12,0.17
2012-8-15,92,72,61,68,62,58,99,74,36,30.00,29.92,6,1,8,0.00
2012-8-16,90,75,58,69,61,58,99,66,36,30.04,29.84,15,4,18,0.00
2012-8-17,87,74,59,65,60,55,89,64,36,29.96,29.86,9,2,14,0.00
2012-8-18,91,68,52,61,55,50,99,68,26,30.00,29.90,7,1,7,0.00
2012-8-19,90,71,57,61,56,54,92,64,31,29.94,29.83,8,2,11,0.00
2012-8-20,90,68,51,64,54,48,99,66,27,29.99,29.89,8,1,9,0.00
2012-8-21,91,68,54,63,56,53,98,70,31,30.11,29.99,11,2,11,0.01
2012-8-22,92,70,52,64,56,51,99,68,31,30.17,30.07,6,1,8,0.00
2012-8-23,93,72,54,63,57,52,98,67,27,30.17,30.08,7,2,8,0.00
2012-8-24,95,75,56,65,59,55,97,63,29,30.15,30.05,8,2,11,0.00
2012-8-25,96,76,60,67,61,57,94,64,33,30.16,30.08,10,2,14,0.00
2012-8-26,94,77,62,64,60,56,84,58,31,30.19,30.04,9,2,12,0.00
2012-8-27,88,74,64,75,66,59,95,76,52,30.07,29.95,11,3,15,0.22
2012-8-28,91,74,62,72,64,58,99,74,41,30.07,30.00,9,2,12,0.00
2012-8-29,86,70,54,65,57,54,99,69,35,30.11,30.02,6,1,9,0.00
2012-8-30,92,72,54,61,55,48,97,62,23,30.14,30.05,8,2,10,0.00
2012-8-31,98,75,57,72,65,54,96,73,39,30.17,30.06,17,3,17,0.05
2012-9-1,86,77,73,76,73,71,96,87,71,30.14,30.02,10,2,12,0.00
2012-9-2,83,77,72,74,72,70,95,86,74,30.05,29.90,10,3,10,0.00
2012-9-3,82,76,70,73,71,69,96,86,72,29.95,29.89,17,3,17,0.00
2012-9-4,83,76,65,76,72,61,95,88,74,30.11,29.83,8,2,11,0.01
2012-9-5,89,76,66,71,68,65,99,81,52,29.99,29.88,7,1,8,0.00
2012-9-6,92,78,64,70,67,63,98,72,41,30.02,29.94,11,2,15,0.00
2012-9-7,90,76,65,73,67,64,97,75,41,30.02,29.75,10,2,13,0.00
2012-9-8,80,67,56,68,59,49,94,77,43,29.97,29.67,11,4,19,0.67
2012-9-9,76,62,50,58,54,49,99,77,46,30.14,29.95,6,1,8,0.00
2012-9-10,78,62,47,58,50,47,99,72,36,30.29,30.14,8,1,8,0.00
2012-9-11,81,63,46,57,51,45,99,70,34,30.35,30.26,8,2,11,0.00
2012-9-12,88,68,49,61,55,48,99,69,36,30.37,30.27,9,2,10,0.00
2012-9-13,88,70,56,65,59,55,97,71,39,30.38,30.26,8,2,11,0.00
2012-9-14,83,63,49,64,57,48,98,82,49,30.36,30.26,13,2,16,0.00
2012-9-15,78,58,44,56,47,42,99,73,33,30.38,30.24,6,1,9,0.00
2012-9-16,80,62,48,53,48,43,96,66,29,30.25,30.11,9,2,9,0.00
2012-9-17,80,65,50,63,54,46,91,70,41,30.13,29.89,10,2,11,0.08
2012-9-18,70,64,53,66,57,42,98,79,52,30.06,29.69,13,4,17,0.15
2012-9-19,70,54,37,47,40,36,99,64,29,30.23,30.06,8,2,10,0.00
2012-9-20,80,60,40,56,46,39,98,66,29,30.16,29.99,12,3,14,0.00
2012-9-21,74,64,54,57,50,38,90,64,28,30.07,29.79,12,3,14,0.01
2012-9-22,74,59,42,58,48,30,97,70,32,30.19,29.81,25,6,30,5.49
2012-9-23,68,50,35,47,38,34,99,69,34,30.29,30.19,11,2,11,0.00
2012-9-24,70,51,33,46,36,31,99,63,24,30.34,30.12,14,3,18,0.00
2012-9-25,69,55,41,57,48,37,93,78,48,30.14,30.03,11,3,14,0.07
2012-9-26,78,66,59,66,61,56,97,85,59,30.18,30.03,13,4,16,0.00
2012-9-27,70,63,56,66,62,54,98,94,85,30.22,30.14,8,2,9,0.14
2012-9-28,71,58,50,56,53,50,99,83,52,30.22,30.11,8,2,10,0.00
2012-9-29,74,58,43,54,49,43,99,76,43,30.15,30.00,11,1,11,0.00
2012-9-30,75,56,42,53,46,40,99,73,33,30.00,29.91,8,2,11,0.00
2012-10-1,67,56,47,53,49,44,94,77,54,29.99,29.81,12,3,14,0.01
2012-10-2,84,66,55,69,62,53,96,86,60,29.96,29.78,12,3,13,0.00
2012-10-3,73,64,55,63,57,53,99,81,52,30.21,29.95,14,3,17,0.00
2012-10-4,80,64,48,60,54,47,99,73,41,30.27,30.19,11,3,16,0.00
2012-10-5,78,66,49,61,56,45,89,71,48,30.20,30.00,11,4,14,0.01
2012-10-6,61,51,41,46,39,31,96,69,34,30.18,30.02,11,4,13,0.00
2012-10-7,52,46,42,41,37,36,84,71,60,30.24,30.13,8,2,12,0.00
2012-10-8,56,44,35,41,37,32,99,77,49,30.32,30.21,7,1,10,0.00
2012-10-9,64,45,30,45,36,29,99,74,37,30.26,30.04,9,2,14,0.00
2012-10-10,72,56,39,66,53,36,96,89,64,30.04,29.49,8,2,8,0.01
2012-10-11,84,65,36,69,57,26,98,79,26,29.95,29.51,10,2,10,0.01
2012-10-12,63,47,37,42,34,26,89,64,25,30.14,29.94,8,1,11,0.00
2012-10-13,73,55,33,55,41,27,81,61,41,30.13,29.81,11,4,14,0.00
2012-10-14,80,69,63,60,58,55,77,67,47,29.81,29.48,27,9,27,0.70
2012-10-15,68,55,51,60,48,43,92,77,67,29.72,29.49,17,6,19,0.00
2012-10-16,65,48,32,44,38,31,98,71,40,29.78,29.60,8,2,10,0.00
2012-10-17,78,62,45,52,46,40,82,60,33,29.63,29.42,13,4,14,0.00
2012-10-18,66,58,42,53,41,27,86,56,25,29.53,29.31,21,6,21,0.04
2012-10-19,65,55,47,62,51,39,96,88,46,29.77,29.40,11,3,13,0.00
2012-10-20,84,66,42,69,61,38,98,84,59,29.98,29.73,10,2,10,0.77
2012-10-21,65,47,32,48,40,31,99,79,44,30.14,29.96,8,1,11,0.00
2012-10-22,80,60,40,56,48,39,99,70,41,30.14,30.02,11,2,14,0.00
2012-10-23,80,68,56,55,51,47,85,56,36,30.06,29.98,16,3,16,0.01
2012-10-24,82,67,53,58,54,49,97,65,38,30.11,30.02,12,3,14,0.01
2012-10-25,83,64,48,56,51,47,97,67,37,30.07,29.95,9,2,12,0.00
2012-10-26,64,54,49,56,49,46,95,84,66,30.10,29.96,17,3,17,0.01
2012-10-27,51,48,47,48,46,43,98,90,77,30.07,29.97,13,4,13,0.00
2012-10-28,47,44,39,44,41,38,96,88,76,30.05,29.92,13,6,15,0.00
2012-10-29,41,39,37,40,37,33,97,95,87,29.95,29.53,27,9,27,0.32
2012-10-30,39,37,33,38,35,31,97,92,84,29.52,29.33,26,11,27,0.33
2012-10-31,42,40,37,40,38,35,99,94,84,29.72,29.52,14,6,14,0.17
2012-11-1,52,44,39,40,36,31,99,77,51,29.79,29.72,14,5,17,0.05
2012-11-2,49,43,34,33,30,26,73,61,50,30.05,29.78,11,4,13,0.00
2012-11-3,51,43,40,34,32,30,74,64,52,30.15,30.04,6,2,8,0.00
2012-11-4,48,40,27,36,30,23,88,70,54,30.13,30.08,8,1,8,0.00
2012-11-5,52,37,25,34,27,21,91,69,45,30.15,30.07,6,1,8,0.00
2012-11-6,53,37,26,34,27,20,84,67,44,30.09,29.91,9,2,9,0.00
2012-11-7,45,37,29,30,27,24,80,68,53,30.06,29.99,4,1,5,0.00
2012-11-8,53,36,23,37,28,20,91,74,46,30.20,30.06,10,1,10,0.00
2012-11-9,60,40,25,42,31,22,93,73,48,30.24,30.12,10,2,11,0.00
2012-11-10,60,49,42,42,39,37,84,68,49,30.17,30.15,2,0,2,0.02
2012-11-11,70,58,40,42,38,34,86,48,29,30.27,30.09,15,4,17,0.00
2012-11-12,64,50,32,55,42,28,96,77,36,30.35,29.99,21,7,24,0.64
2012-11-13,45,33,23,32,25,20,96,74,48,30.48,30.35,8,1,8,0.00
2012-11-14,45,32,20,31,25,17,91,74,54,30.51,30.32,9,2,12,0.00
2012-11-15,53,35,21,34,26,18,90,72,43,30.34,30.26,8,1,8,0.00
2012-11-16,55,36,23,40,29,20,93,75,48,30.45,30.30,9,1,11,0.00
2012-11-17,62,40,23,38,28,20,91,67,32,30.53,30.43,9,2,12,0.00
2012-11-18,62,42,28,35,27,21,83,60,27,30.46,30.36,8,1,9,0.00
2012-11-19,60,40,26,41,31,22,91,73,47,30.37,30.17,5,1,8,0.00
2012-11-20,59,45,33,42,37,30,94,76,53,30.17,30.06,5,1,6,0.00
2012-11-21,66,46,32,44,38,31,98,74,41,30.22,30.10,5,1,6,0.00
2012-11-22,66,47,29,46,36,28,99,71,40,30.19,29.97,11,2,12,0.00
2012-11-23,56,45,32,48,32,18,85,61,50,30.09,29.86,21,10,23,0.02
2012-11-24,33,31,30,25,21,18,78,65,55,30.13,30.06,14,6,17,0.00
2012-11-25,47,35,29,27,22,19,75,61,43,30.07,29.85,14,4,18,0.00
2012-11-26,52,39,26,34,28,22,89,66,40,30.18,29.99,8,1,10,0.00
2012-11-27,43,35,21,31,26,16,85,70,56,30.29,30.17,8,2,10,0.00
2012-11-28,45,28,17,28,18,13,87,69,41,30.34,30.25,11,2,13,0.00
2012-11-29,50,31,18,32,20,12,87,66,36,30.36,30.22,10,2,12,0.00
2012-11-30,60,42,28,36,31,22,85,65,38,30.23,30.13,14,3,15,0.00
2012-12-1,63,45,30,47,39,29,99,79,54,30.25,30.14,10,2,14,0.00
2012-12-2,58,56,53,56,51,45,99,86,66,30.15,30.03,12,5,17,0.31
2012-12-3,64,58,56,59,57,56,99,96,81,30.15,30.10,11,2,11,0.02
2012-12-4,48,44,40,45,42,40,99,95,90,29.92,29.92,7,2,9,0.49
2012-12-5,46,36,26,41,31,20,99,81,57,29.92,29.92,8,2,11,0.00
2012-12-6,49,37,27,39,28,20,89,72,57,29.92,29.92,12,1,12,0.04
2012-12-7,51,48,42,51,47,40,99,97,91,29.92,29.92,4,1,5,0.58
2012-12-8,55,51,43,54,50,41,99,94,85,29.92,29.92,11,3,14,0.06
2012-12-9,59,48,40,57,45,37,96,91,86,29.92,29.92,10,5,13,0.24
2012-12-10,38,35,34,35,31,30,87,85,80,29.92,29.92,9,4,10,0.22
2012-12-11,36,33,23,31,27,19,87,79,64,29.92,29.92,11,3,11,0.01
2012-12-12,46,29,18,31,21,14,87,75,51,29.92,29.92,5,1,5,0.00
2012-12-13,50,30,18,30,21,13,85,71,36,29.92,29.92,6,1,8,0.00
2012-12-14,52,34,21,33,25,17,88,71,44,29.92,29.92,8,1,9,0.00
2012-12-15,51,42,31,38,32,25,81,68,55,29.92,29.92,10,3,11,0.00
2012-12-16,61,56,50,53,48,38,87,74,62,29.92,29.92,14,6,14,0.00
2012-12-17,56,47,44,52,45,42,96,92,82,29.92,29.92,12,2,14,0.38
2012-12-18,46,41,38,43,36,31,96,83,60,29.92,29.92,13,5,15,0.00
2012-12-19,47,42,35,38,36,30,89,80,68,29.92,29.92,8,3,14,0.00
2012-12-20,50,43,35,46,37,25,90,80,63,29.92,29.92,27,10,40,1.83
2012-12-21,35,32,30,29,26,23,88,79,64,29.92,29.92,31,13,32,1.83
2012-12-22,32,29,20,26,21,15,79,73,64,29.92,29.92,14,6,17,0.00
2012-12-23,45,28,16,29,20,10,83,71,51,29.92,29.92,11,1,11,0.00
2012-12-24,35,31,27,32,26,20,91,81,73,29.92,29.92,11,3,11,0.05
2012-12-25,36,34,33,31,28,25,89,78,69,29.92,29.92,11,3,11,0.00
2012-12-26,34,32,28,30,28,23,88,83,70,29.92,29.92,17,3,17,0.05
2012-12-27,31,28,27,24,22,21,81,78,75,29.92,29.92,0,0,0,0.00
2012-12-28,39,29,23,30,23,18,86,79,63,29.92,29.92,7,2,10,0.22
2012-12-29,34,30,27,29,25,20,88,83,75,29.92,29.92,10,3,15,0.02
2012-12-30,29,24,16,21,17,8,79,72,60,29.92,29.92,11,4,13,0.00
2012-12-31,34,29,16,29,22,9,88,77,63,29.92,29.92,11,4,16,0.00
2013-1-1,35,28,16,30,22,8,90,77,61,29.92,29.92,6,1,8,0.05